MHTE

Tela Airport

Airport
ICAO code
MHTE
IATA Code
TEA
Summary
ICAO Region
CARSAM
ICAO Territory
Location

Tela, Atlantida Department

Serving
Tela
Coordinates
15° 46' 36" N , 87° 28' 21" W
KCC
Metar
MHTE 301600Z 36008KT 9999 SCT026 31/25 Q1012 A2988

Tela Airport is an airport serving Tela, a town in the Atlántida Department on the northern coast of Honduras.

Climatology

Tropical monsoon climate (Köppen climate classification Am)

Runways

Designator Length Width Surface Rops
6/24 1346 30 ASP No/No

Airport map

Aerial View

SKYbrary Partners:

Safety knowledge contributed by: